Tracking 25709 objects as of 24-May-2022
HD Live streaming from Space Station
objects crossing your sky now

ARIANE 5 DEB (SYLDA)

Track ARIANE 5 DEB (SYLDA) now!


NORAD ID: 26109
Int'l Code: 2000-016C
Perigee: 566.7 km
Apogee: 35,546.3 km
Inclination: 6.6 °
Period: 633.3 minutes
Semi major axis: 24427 km
RCS: 16.5211 m2 (large)
Launch date: March 21, 2000
Source: France (FR)
Launch site: FRENCH GUIANA (FRGUI)

Note: This is SATELLITE DEBRIS
aabbcc
Your satellite tracking list
Your tracking list is empty




NASA's NSSDC Master Catalog

Two Line Element Set (TLE):
1 26109U 00016C   22143.61506016  .00000017  00000-0  76866-3 0  9996
2 26109   6.5812 120.0698 7159885 167.3485 292.9068  2.27396655183862
Source of the keplerian elements: AFSPC